GPS BIIF-11 (PRN 10)

Last updated on Thu Aug 20 2026 00:03:18 GMT+0000 (Coordinated Universal Time)

1 41019U 15062A 26231.59619624 -.00000075 00000+0 00000+0 0 9996 2 41019 57.0018 28.3727 0114519 230.8659 128.1256 2.00567099 79101
UTC large
Height (km)
Speed (km/s)
/
Latitude / Longitude
Inclination (degrees)
Orbital Period (minutes)
Azimuth
Elevation
Range (km)
Doppler Factor

Next 0 passes for location: London (51.5072 / 0.1276)

No passes found over London.
GPS BIIF-11 (PRN 10)